Погода Ярково

Погода Ярково : погода сейчас, прогноз погоды и архив. Всё, что Вы хотите узнать о погоде Ярково!

Хотите узнать прогноз погоды Ярково? Тогда Вам сюда: Погода Ярково

Поиск расширенной информации на нашем сайте:

Полезная информация: Подробности гостиницы омска цены тут.

Другие новости

Новости СМИ2

Главная страница сайта

Новости сайта

03.07.2017

Напоминаем, что на нашем специализированном сайте Метеоцентр.Азия вы можете получить высокодетализированные автоматические прогнозы погоды по пунктам России, СНГ и мира в авиационном формате (включающие направление и скорость ветра, видимость, явления погоды, количество и форму облачности, нижнюю и верхнюю границу облачности).

Рекомендуем: relux ватные валочки

Погода Ярково - сегодня

Время (UTC), дата Ветер
(°,м/с) 
Видим.   Явления Облачность Т
(°С)
Тd
(°С)
f(%) Тe
(°С)
Pmin
(гПа)
dP
(гПа)
Po
(мм)
O2
(г/м3)
Тmin Tmax R s Состояние
почвы
06 23.07.17 130 (ЮВ) 10 км  {гроза, ливн. осадки}  10/10 600 м кучево-дожд. 
[Cb cap]
+18.3 +16.5 89 +30  1007.6  -0.4  751  280           
09 23.07.17 130 (ЮВ) 10 км    9/9 600 м кучево-дожд. 
[Cb cap]
+20.8 +16.1 74 +31  1006.4  -1.1  750  278           
12 23.07.17 250 (З) 4000 м  гроза, ливневой дождь  9/9 600 м кучево-дожд. 
[Cb cap]
+19.1 +17.6 91 +35  1005.9  -0.6  750  278           
15 23.07.17 360 (С) 10 км  {гроза, ливн. осадки}  8/6 600 м кучево-дожд., средняя, верхняя 
[Cb cap|Ac cast|Ci ing]
+18.1 +14.1 77 +26  1006.4  0.5  750  281    +21.4     
18 23.07.17 300 (СЗ) 10 км  {гроза, ливн. осадки}  8/0 верхняя 
[Cc]
+13.3 +12.3 94 +19  1006.3  -0.3  750  286           
21 23.07.17 290 (З) 1000 м  дымка  ясно 
+11.6 +10.7 94 +15  1005.5  -0.8  750  288           
00 24.07.17 310 (СЗ) 4000 м  дымка  ясно 
+13 +12.2 95 +18  1005.2  -0.2  749  286           
03 24.07.17 360 (С) 0500 м  туман{морось}  10/10 300 м 
[St]
+16.2 +15.4 95 +27  1004.8  -0.4  749  282  +11.6    0.0     
06 24.07.17 300 (СЗ) 10 км  {морось, туман}  10/10 600 м 
[Sc]
+18.7 +15.8 83 +29  1005.2  0.5  750  279           
09 24.07.17 310 (СЗ) 10 км    9/8 1000 м верхняя 
[Cu med, cong|Cs]
+21.5 +15.3 68 +31  1005.2  0.1  750  277           
12 24.07.17 330 (СЗ) 10 км    10/3 1000 м верхняя 
[Cu med, cong|Ci sp]
+23.8 +14.2 55 +31  1004.6  -0.6  749  275           
15 24.07.17 330 (СЗ) 10 км    5/3 1000 м средняя, верхняя 
[Cu med, cong|Ac cuf|Ci fib]
+22.1 +15.6 67 +32  1004.8  0.1  749  276    +24.5       
18 24.07.17 тихо ()   10 км    3/0 средняя, верхняя 
[Ac cast|Ci sp]
+15 +13.8 93 +22  1004.9  749  283           
21 24.07.17 тихо ()   10 км    3/0 средняя, верхняя 
[Ac As|Ci fib]
+13.8 +12.9 94 +19  1004.9  749  285           
00 25.07.17 210 (ЮЗ) 10 км    8/0 верхняя 
[Cs]
+13.4 +12.6 95 +20  1004.4  -0.5  749  285           
03 25.07.17 210 (ЮЗ) 10 км    8/0 верхняя 
[Cs]
+21 +16.4 75 +32  1004.3  749  277  +12.7         
06 25.07.17 190 (Ю) 10 км    8/1 600 м кучево-дожд., средняя, верхняя 
[Cb cap|Ac trans|Cc]
+23.5 +15.6 61 +33  1003.6  -0.6  748  274           
09 25.07.17 220 (ЮЗ) 10 км    10/3 600 м кучево-дожд., средняя, верхняя 
[Cb cap|Ac trans|Cs]
+24.4 +14.9 55 +33  1002.7  -0.9  748  274           
12 25.07.17 240 (ЮЗ) 4000 м  слаб. ливневой дождь  10/10 600 м кучево-дожд. 
[Cb cap]
+21 +16.1 74 +32  1002.6  -0.2  748  276           
15 25.07.17 тихо ()   10 км  {ливн. осадки}  9/4 600 м кучево-дожд., средняя 
[Cb cap|Ac trans]
+18.9 +16.4 85 +30  1002.7  0.1  748  278    +24.4  0.3     
18 25.07.17 240 (ЮЗ) 10 км  {ливн. осадки}  4/0 верхняя 
[Ci sp]
+16.6 +14.6 88 +26  1002.8  748  281           
21 25.07.17 170 (Ю) 10 км    ясно 
+13 +11.7 92 +18  1002.9  0.1  748  285           
00 26.07.17 тихо ()   10 км    ясно 
+12.4 +11.4 94 +16  1003.3  0.3  748  286           
03 26.07.17 200 (Ю) 10 км    3/3 1000 м 
[Cu hum]
+17.9 +14.5 81 +27  1003.3  0.2  748  280  +12.2         
06 26.07.17 220 (ЮЗ) 10 км    5/5 1000 м 
[Cu med, cong]
+22.5 +14.6 61 +31  1003.3  748  276           
Время (UTC), дата Ветер
(°,м/с) 
Видим.   Явления Облачность Т
(°С)
Тd
(°С)
f(%) Тe
(°С)
Pmin
(гПа)
dP
(гПа)
Po
(мм)
O2
(г/м3)
Тmin Tmax R s Состояние
почвы

Для получения пояснительной информации подведите курсор к названию столбца.

ПОГОДА Ярково - архив

Всё, что Вы хотите узнать о погоде Ярково - удобно и подробно!

Выберите нужную дату (начиная с 1 января 2015* года) и нажмите кнопку "Найти".
Будут отображены архивные сводки погоды по пункту Ярково, начиная с указанной даты.


Отображать данные в формате CSV (для использования в таблицах Excel)


Внимание! Наш архив погоды предназначен исключительно для личного некоммерческого использования в познавательных целях. Если Вам необходимы официальные справки о состоянии погоды (для производственных, юридических, коммерческих и т.п. целей), обращайтесь в органы Росгидромета.

*Примечание: данная дата относится к архиву по метеостанциям СССР (Россия, СНГ, Балтия).
Архив по метеостанциям Зарубежной Европы и Азии (кроме Китая) хранится 10 дней, по другим регионам земного шара (Китай, Африка, Америка, Австралия, Океания) - 1 день.

Ярково - район местоположения метеостанции


Название, широта, долгота, высота метеостанции:
Ярково 57.4°ш. 67.1°д. 50 м над ур. моря [Российская Федерация]

Дополнительная информация

В oтличие oт бoльшинства пoгoдных сайтoв мы публикуем пoдрoбную метеoинфoрмацию в детальнoм прoфессиoнальнoм фoрмате.

Характеристики температуры и влажнoсти вoздуха измеряются на высoте 2 м в тени вдали oт зданий и деревьев.
Скoрoсть ветра измеряется на высoте 10 м (на урoвне рoста челoвека скoрoсть ветра ниже в 1.5-2 раза). Если метеoстанция нахoдится в гoрoде или в лесу, тo скoрoсть ветра занижена на 2-4 м/с пo сравнению с oткрытым местoм. Скoрoсть ветра над акватoриями крупных рек и oзёр, а также на вершинах хoлмoв на 2-5 м/с выше, чем в oбычных услoвиях.
Атмoсфернoе давление в разных тoчках местнoсти мoжет значительнo oтличаться oт давления на метеoстанции, в зависимoсти oт услoвий рельефа (при пoдъёме на 10 м давление пoнижается примернo на 1 мм рт.ст.).